Regional Weather Roundup
Issued by NWS Goodland, KS

Home | Current Version | Previous Version | Text Only | Print | Product List | Glossary Off
Versions: 1 2 3 4 5 6 7 8 9 10 11 12 13 14 15 16 17 18 19 20 21 22 23 24 25 26 27 28 29 30 31 32 33 34 35 36 37 38 39 40 41 42 43 44 45 46 47 48 49 50

000
ASUS43 KGLD 230859
RWRGLD

GOODLAND FORECAST AREA HOURLY WEATHER ROUNDUP
NATIONAL WEATHER SERVICE GOODLAND KS
300 AM MDT WED APR 23 2014

...OFFICIAL OBSERVATIONS...

CITY           SKY/WX    TMP DP  RH WIND       PRES   REMARKS
GOODLAND KS    MOCLDY    57  45  64 S24G33    29.65F
HILL CITY KS   MOCLDY    58  36  43 S13G26    29.72F
IMPERIAL NEB   MOCLDY    59  46  62 S20G30    29.59F
MCCOOK NEB     MOCLDY    60  39  45 S26G38    29.63F
AKRON CO       CLOUDY    56  41  57 SE14      29.58F
BURLINGTON CO  MOCLDY    57  41  55 S21       29.65F
LIMON CO       CLOUDY    56  38  50 S16       29.66F
$$

...UNOFFICIAL OBSERVATIONS...

CITY           SKY/WX    TMP DP  RH WIND       PRES   REMARKS
COLBY KS       CLEAR     61  50  67 S24G36    29.68F
LENORA KS        N/A     57  32  39 SE22G29     N/A
LEOTI KS         N/A     58  32  37 S12         N/A
NORTON KS      CLEAR     55  32  41 SE20G26   29.70S
SHARON SPRINGS   N/A     57  45  65 S17         N/A
WAKEENEY KS      N/A     58  33  37 MISG        N/A
KIT CARSON CO    N/A     56  42  58 MISG        N/A
$$



USA.gov is the U.S. government's official web portal to all federal, state and local government web resources and services.